When you browse on this site, cookies collect data to enhance your experience and personalize the content and advertising you see.
Visit our Privacy Policy to learn more. By continuing to use the site, you agree to this use of cookies and data.
  • In Sweden
  • List of Countries
  • For 7 days
  • Water Temperature
  • Weather Map
  • Weather Widgets
  • user-avatar
    Login

    Hourly Weather Cheshire

    Today, 7 June, Sunday

    Time Temperature Precipitation Wind Pressure Humidity
    00:00 +18°C° 0 mm 3 mps 749 mmHg 66%
    01:00 +17°C° 0 mm 3 mps 749 mmHg 71%
    02:00 +16°C° 0 mm 3 mps 749 mmHg 73%
    03:00 +15°C° 0 mm 4 mps 749 mmHg 76%
    04:00 +15°C° 0 mm 4 mps 749 mmHg 78%
    05:00 +15°C° 0 mm 5 mps 750 mmHg 72%
    06:00 +16°C° 0 mm 5 mps 750 mmHg 66%
    07:00 +17°C° 0 mm 6 mps 751 mmHg 59%
    08:00 +20°C° 0 mm 6 mps 751 mmHg 53%
    09:00 +21°C° 0 mm 6 mps 751 mmHg 47%
    10:00 +22°C° 0 mm 6 mps 751 mmHg 40%
    11:00 +23°C° 0 mm 5 mps 751 mmHg 39%
    12:00 +23°C° 0 mm 5 mps 751 mmHg 38%
    13:00 +25°C° 0 mm 5 mps 751 mmHg 37%
    14:00 +25°C° 0 mm 4 mps 751 mmHg 40%
    15:00 +23°C° 0 mm 4 mps 751 mmHg 43%
    16:00 +23°C° 0 mm 4 mps 751 mmHg 45%
    17:00 +22°C° 0 mm 3 mps 751 mmHg 50%
    18:00 +20°C° 0 mm 3 mps 752 mmHg 54%
    19:00 +19°C° 0 mm 2 mps 753 mmHg 58%
    20:00 +18°C° 0 mm 2 mps 753 mmHg 59%
    21:00 +17°C° 0 mm 2 mps 753 mmHg 60%
    22:00 +16°C° 0 mm 2 mps 753 mmHg 60%
    23:00 +15°C° 0 mm 2 mps 754 mmHg 62%

    Tomorrow, 8 June, Monday

    Time Temperature Precipitation Wind Pressure Humidity
    00:00 +14°C° 0 mm 2 mps 754 mmHg 64%
    01:00 +14°C° 0 mm 1 mps 754 mmHg 66%
    02:00 +13°C° 0 mm 2 mps 754 mmHg 68%
    03:00 +13°C° 0 mm 2 mps 754 mmHg 69%
    04:00 +13°C° 0 mm 2 mps 754 mmHg 70%
    05:00 +14°C° 0 mm 3 mps 754 mmHg 65%
    06:00 +16°C° 0 mm 3 mps 755 mmHg 59%
    07:00 +18°C° 0 mm 4 mps 755 mmHg 53%
    08:00 +20°C° 0 mm 4 mps 755 mmHg 48%
    09:00 +21°C° 0 mm 4 mps 755 mmHg 43%
    10:00 +23°C° 0 mm 4 mps 754 mmHg 38%
    11:00 +23°C° 0 mm 4 mps 754 mmHg 37%
    12:00 +25°C° 0 mm 4 mps 754 mmHg 35%
    13:00 +26°C° 0 mm 4 mps 754 mmHg 34%
    14:00 +26°C° 0 mm 4 mps 754 mmHg 35%
    15:00 +26°C° 0 mm 3 mps 754 mmHg 37%
    16:00 +26°C° 0 mm 3 mps 753 mmHg 38%
    17:00 +24°C° 0 mm 3 mps 754 mmHg 46%
    18:00 +23°C° 0 mm 2 mps 754 mmHg 53%
    19:00 +20°C° 0 mm 2 mps 754 mmHg 61%
    20:00 +19°C° 0 mm 2 mps 754 mmHg 62%
    21:00 +19°C° 0 mm 1 mps 755 mmHg 63%
    22:00 +18°C° 0 mm 1 mps 755 mmHg 65%
    23:00 +16°C° 0 mm 1 mps 755 mmHg 68%

    Day after tomorrow, 9 June, Tuesday

    Time Temperature Precipitation Wind Pressure Humidity
    00:00 +16°C° 0 mm 1 mps 755 mmHg 71%
    01:00 +15°C° 0 mm 1 mps 755 mmHg 75%
    02:00 +15°C° 0 mm 1 mps 755 mmHg 76%
    03:00 +14°C° 0 mm 1 mps 755 mmHg 78%
    04:00 +14°C° 0 mm 1 mps 755 mmHg 80%
    05:00 +16°C° 0 mm 1 mps 755 mmHg 74%
    06:00 +18°C° 0 mm 1 mps 756 mmHg 68%
    07:00 +20°C° 0 mm 1 mps 756 mmHg 62%
    08:00 +22°C° 0 mm 1 mps 756 mmHg 56%
    09:00 +24°C° 0 mm 1 mps 755 mmHg 50%
    10:00 +26°C° 0 mm 1 mps 755 mmHg 44%
    11:00 +27°C° 0 mm 2 mps 755 mmHg 43%
    12:00 +27°C° 0 mm 2 mps 755 mmHg 41%
    13:00 +28°C° 0 mm 3 mps 755 mmHg 39%
    14:00 +28°C° 0 mm 3 mps 755 mmHg 41%
    15:00 +28°C° 0 mm 3 mps 754 mmHg 42%
    16:00 +27°C° 0 mm 3 mps 754 mmHg 44%
    17:00 +26°C° 0 mm 3 mps 754 mmHg 50%
    18:00 +24°C° 0 mm 2 mps 754 mmHg 56%
    19:00 +21°C° 0 mm 2 mps 755 mmHg 62%
    20:00 +20°C° 0 mm 2 mps 755 mmHg 65%
    21:00 +19°C° 0 mm 2 mps 755 mmHg 69%
    22:00 +18°C° 0 mm 2 mps 755 mmHg 73%
    23:00 +18°C° 0 mm 2 mps 755 mmHg 77%

    10 June, Wednesday

    Time Temperature Precipitation Wind Pressure Humidity
    00:00 +18°C° 0 mm 2 mps 755 mmHg 81%
    01:00 +18°C° 0 mm 2 mps 755 mmHg 85%
    02:00 +18°C° 0 mm 2 mps 755 mmHg 84%
    03:00 +18°C° 0 mm 2 mps 755 mmHg 82%
    04:00 +18°C° 0 mm 2 mps 755 mmHg 81%
    05:00 +19°C° 0 mm 2 mps 755 mmHg 76%
    06:00 +20°C° 0 mm 3 mps 755 mmHg 71%
    07:00 +21°C° 0 mm 3 mps 755 mmHg 65%
    08:00 +23°C° 0 mm 4 mps 755 mmHg 64%
    09:00 +25°C° 0 mm 4 mps 755 mmHg 63%
    10:00 +26°C° 0 mm 5 mps 755 mmHg 62%
    11:00 +27°C° 0 mm 6 mps 755 mmHg 60%
    12:00 +27°C° 0 mm 6 mps 755 mmHg 59%
    13:00 +28°C° 0 mm 7 mps 754 mmHg 57%
    14:00 +27°C° 0 mm 7 mps 754 mmHg 59%
    15:00 +27°C° 0 mm 7 mps 754 mmHg 60%
    16:00 +26°C° 0 mm 7 mps 754 mmHg 61%
    17:00 +24°C° 0 mm 7 mps 754 mmHg 67%
    18:00 +23°C° 0 mm 6 mps 754 mmHg 73%
    19:00 +22°C° 0 mm 6 mps 754 mmHg 79%
    20:00 +22°C° 0.2 mm 6 mps 754 mmHg 82%
    21:00 +21°C° 0.2 mm 6 mps 754 mmHg 86%
    22:00 +21°C° 0.2 mm 6 mps 755 mmHg 89%
    23:00 +21°C° 1.4 mm 5 mps 755 mmHg 92%

    11 June, Thursday

    Time Temperature Precipitation Wind Pressure Humidity
    00:00 +20°C° 1.4 mm 4 mps 755 mmHg 94%
    01:00 +20°C° 1.4 mm 4 mps 755 mmHg 97%
    02:00 +20°C° 0.2 mm 3 mps 756 mmHg 95%
    03:00 +20°C° 0.2 mm 2 mps 756 mmHg 93%
    04:00 +19°C° 0.2 mm 2 mps 756 mmHg 91%
    05:00 +20°C° 0 mm 2 mps 757 mmHg 86%
    06:00 +20°C° 0 mm 2 mps 757 mmHg 81%
    07:00 +21°C° 0 mm 1 mps 758 mmHg 76%
    08:00 +24°C° 0 mm 1 mps 758 mmHg 66%
    09:00 +26°C° 0 mm 1 mps 758 mmHg 55%
    10:00 +28°C° 0 mm 1 mps 758 mmHg 44%
    11:00 +29°C° 0 mm 1 mps 758 mmHg 41%
    12:00 +29°C° 0 mm 2 mps 757 mmHg 37%
    13:00 +30°C° 0 mm 3 mps 757 mmHg 33%
    14:00 +30°C° 0 mm 3 mps 757 mmHg 34%
    15:00 +30°C° 0 mm 3 mps 757 mmHg 34%
    16:00 +30°C° 0 mm 3 mps 757 mmHg 34%
    17:00 +28°C° 0 mm 2 mps 757 mmHg 44%
    18:00 +26°C° 0 mm 2 mps 757 mmHg 54%
    19:00 +23°C° 0 mm 2 mps 757 mmHg 64%
    20:00 +21°C° 0 mm 2 mps 757 mmHg 64%
    21:00 +21°C° 0 mm 1 mps 758 mmHg 64%
    22:00 +20°C° 0 mm 1 mps 758 mmHg 64%
    23:00 +20°C° 0 mm 1 mps 758 mmHg 67%

    12 June, Friday

    Time Temperature Precipitation Wind Pressure Humidity
    00:00 +19°C° 0 mm 1 mps 757 mmHg 70%
    01:00 +17°C° 0 mm 0 mps 757 mmHg 73%
    02:00 +16°C° 0 mm 0 mps 757 mmHg 75%
    03:00 +16°C° 0 mm 0 mps 757 mmHg 76%
    04:00 +16°C° 0 mm 0 mps 757 mmHg 78%
    05:00 +18°C° 0 mm 0 mps 757 mmHg 73%
    06:00 +20°C° 0 mm 0 mps 757 mmHg 69%
    07:00 +22°C° 0 mm 0 mps 757 mmHg 64%
    08:00 +25°C° 0 mm 1 mps 757 mmHg 57%
    09:00 +27°C° 0 mm 1 mps 757 mmHg 50%
    10:00 +29°C° 0 mm 2 mps 757 mmHg 43%
    11:00 +29°C° 0 mm 2 mps 756 mmHg 41%
    12:00 +30°C° 0 mm 3 mps 756 mmHg 39%
    13:00 +31°C° 0 mm 3 mps 755 mmHg 37%
    14:00 +30°C° 0 mm 3 mps 755 mmHg 39%
    15:00 +30°C° 0 mm 4 mps 755 mmHg 41%
    16:00 +29°C° 0 mm 4 mps 755 mmHg 43%
    17:00 +27°C° 0.1 mm 3 mps 755 mmHg 55%
    18:00 +25°C° 0.1 mm 2 mps 755 mmHg 67%
    19:00 +22°C° 0.1 mm 1 mps 755 mmHg 79%
    20:00 +22°C° 0 mm 1 mps 755 mmHg 80%
    21:00 +21°C° 0 mm 1 mps 755 mmHg 81%
    22:00 +21°C° 0 mm 1 mps 755 mmHg 82%
    23:00 +20°C° 0 mm 1 mps 755 mmHg 85%
    Show more